Lapse_Rate
6.4 6.3 6.4 6.2 6.0 5.9 5.1 5.2 5.0 5.4 5.1 5.0 4.5 4.8 4.4 4.4 4.3 4.3 4.4 4.3 4.5 4.5 4.6 4.6 4.7 4.8 4.8
6.5 6.4 6.6 6.5 6.1 6.0 6.0 5.8 5.9 5.8 5.4 5.3 5.0 5.1 4.9 4.5 4.4 4.3 4.3 4.4 4.4 4.5 4.5 4.6 4.8 4.9 4.8
5.8 6.3 6.3 6.2 5.9 5.9 6.1 6.2 6.2 6.4 6.0 5.6 5.5 5.5 4.9 4.4 4.3 4.4 4.3 4.4 4.4 4.5 4.4 4.4 4.6 4.7 4.9
5.2 5.6 6.1 6.1 5.7 5.8 5.8 6.3 6.8 6.5 6.2 5.8 5.8 5.4 4.8 4.7 4.7 4.7 4.7 4.7 4.5 4.4 4.5 4.5 4.6 4.8 4.9
5.4 5.4 5.3 5.8 5.5 6.1 6.3 6.4 6.4 6.3 6.1 5.9 5.6 5.5 5.6 5.3 5.1 5.0 4.7 4.6 4.6 4.6 4.7 4.6 4.7 5.0 5.1
5.6 5.3 5.5 5.7 6.0 5.5 6.2 6.4 6.2 6.5 6.2 5.9 5.5 5.4 5.4 5.3 5.1 4.9 4.7 4.6 4.7 4.9 4.7 4.8 4.8 4.8 5.0
5.6 5.5 6.0 5.8 6.1 5.9 6.2 6.4 6.3 6.2 5.4 5.3 5.3 5.5 5.4 5.3 5.1 4.8 4.7 4.8 4.9 4.9 4.9 4.8 4.7 4.8 4.9
6.0 6.0 5.5 5.6 5.5 5.6 6.0 6.0 5.8 5.5 5.4 5.0 5.4 5.3 5.4 5.0 4.9 4.9 5.1 4.9 4.9 4.8 5.0 4.8 4.9 4.8 4.9
5.8 6.0 5.9 5.7 5.5 5.3 5.8 5.3 5.0 5.3 5.6 5.1 5.3 5.3 5.2 5.0 5.0 5.1 4.8 4.9 5.0 4.8 5.0 5.0 4.9 4.9 4.8
5.3 5.9 6.0 6.1 6.0 5.8 5.6 5.6 5.4 5.2 5.5 5.6 5.8 5.4 5.3 5.2 5.1 5.0 5.1 5.0 5.2 5.1 4.9 4.9 4.7 4.8 4.7
5.7 5.8 6.3 6.0 5.9 5.5 5.5 5.6 5.6 5.6 5.8 5.5 5.5 5.4 5.5 5.3 5.4 5.3 5.1 5.2 5.3 5.0 4.8 4.8 4.7 4.6 4.6
5.7 6.0 6.1 5.6 5.9 5.7 5.5 5.8 5.8 5.6 5.4 5.6 5.6 5.5 5.7 5.4 5.5 5.6 5.4 5.2 5.1 4.9 4.9 4.9 4.9 5.0 4.9
5.6 5.9 6.0 5.7 5.9 5.9 5.5 5.6 5.8 5.9 5.6 5.5 5.7 5.6 5.5 5.6 5.8 5.6 5.4 5.2 5.0 5.2 5.0 5.0 5.0 4.7 4.8
5.6 6.0 5.8 6.0 5.6 5.6 5.8 5.7 5.8 5.7 5.6 5.7 5.8 5.6 5.6 5.8 5.9 5.9 5.6 5.2 5.0 4.9 4.9 4.8 4.8 4.7 4.7
5.9 6.2 6.0 5.6 5.2 5.6 5.8 5.8 5.9 5.4 5.5 5.5 5.6 5.6 5.8 5.8 5.6 5.4 5.6 5.2 5.1 5.0 4.8 4.9 4.9 4.4 4.4
5.7 5.8 6.0 5.9 6.1 5.9 5.9 6.1 5.8 5.3 5.4 5.6 5.4 5.4 5.6 5.3 5.6 5.6 5.3 5.2 5.2 4.9 4.9 4.8 4.7 4.7 4.7
5.9 5.4 5.6 5.9 6.0 5.9 5.8 6.0 5.8 5.8 5.6 5.5 5.6 5.5 5.5 5.8 5.6 5.3 5.5 5.2 5.2 5.1 4.7 4.8 4.5 4.8 4.9
Wind_Speed
9 11 13 15 14 22 23 24 25 38 36 36 36 34 33 32 30 27 24 24 21 19 20 21 30 33 33
10 8 12 14 13 12 16 20 23 26 35 35 34 36 34 30 31 30 29 29 26 23 21 21 20 30 33
10 7 7 8 11 9 10 13 20 22 27 31 34 32 29 30 31 32 32 31 29 27 24 25 23 21 21
11 5 7 6 10 9 7 7 9 14 19 21 24 27 29 31 31 31 32 29 28 26 26 25 23 24 23
11 7 7 5 13 8 10 9 8 6 7 9 14 15 18 23 23 31 31 30 28 26 25 24 23 25 23
14 15 18 14 12 10 10 6 7 10 9 9 12 10 13 17 23 24 29 29 29 29 28 25 24 24 23
21 19 17 17 14 14 13 12 9 6 11 8 7 9 12 15 22 27 28 29 29 29 27 26 24 23 23
20 19 17 15 17 17 16 13 3 4 9 8 4 7 5 12 20 25 26 27 26 26 25 24 22 20 20
23 19 17 19 18 11 10 11 7 5 7 5 4 3 3 3 11 18 20 21 21 20 21 21 19 17 16
16 10 14 16 22 19 14 13 11 7 6 10 4 4 2 2 3 8 9 12 11 12 14 15 14 11 8
15 13 13 13 13 15 15 13 10 6 7 8 3 4 2 2 2 4 7 6 8 9 12 12 14 13 5
13 13 14 14 14 14 15 14 12 15 12 8 4 5 4 2 3 2 3 6 8 5 7 7 11 13 14
15 14 15 14 15 13 6 6 6 5 15 9 4 7 5 4 4 3 4 4 5 3 3 2 3 3 3
15 13 11 11 11 10 5 9 4 2 6 6 6 9 4 2 4 4 3 4 4 3 3 2 2 3 4
14 12 11 11 11 11 9 8 6 7 4 3 6 10 7 4 3 4 5 3 4 3 3 3 2 4 4
13 13 13 12 10 9 9 12 9 8 5 5 7 3 2 6 13 4 3 3 2 3 2 3 3 3 7
12 12 11 11 14 11 10 10 9 8 8 8 8 4 4 3 2 17 3 2 4 3 2 2 3 3 5
Wind_Direction
207 201 200 205 207 207 214 210 213 210 213 215 221 227 230 235 238 241 241 241 245 249 241 239 229 228 228
191 192 206 205 206 203 214 214 216 215 211 212 217 225 228 225 233 239 242 245 247 248 250 254 245 232 233
203 193 193 202 207 210 212 221 219 217 212 214 216 220 221 226 232 233 237 243 245 246 246 249 244 242 242
214 185 189 186 199 197 204 215 218 207 207 214 216 218 221 226 227 229 235 235 237 240 241 242 244 243 242
208 195 190 169 193 192 208 213 221 202 206 212 207 208 222 228 227 230 231 231 233 233 238 242 245 247 244
205 207 204 198 185 185 194 186 215 205 206 216 200 207 209 207 213 217 223 228 228 230 233 238 239 242 244
204 209 204 197 183 187 192 201 209 171 192 213 188 214 207 209 210 215 220 224 227 226 233 238 237 238 243
212 206 205 191 194 196 194 197 139 156 181 205 173 211 183 208 211 217 223 224 228 229 228 232 234 239 244
214 210 191 187 184 179 185 179 199 186 195 179 177 168 178 196 202 212 220 222 220 222 225 223 228 232 242
216 207 185 185 176 191 186 198 201 202 193 193 149 151 193 202 199 196 194 209 208 210 219 219 219 214 216
202 204 199 190 192 196 188 189 187 209 179 167 152 161 115 146 199 194 187 177 202 216 219 210 208 204 209
198 203 198 193 195 192 192 194 195 210 163 161 153 164 145 153 180 151 189 210 209 216 207 204 214 216 209
202 203 198 190 186 192 170 117 81 117 167 172 159 160 155 156 158 161 154 189 193 193 182 174 169 179 169
204 196 189 183 180 168 152 160 127 98 42 138 139 156 136 134 133 147 156 168 167 166 141 118 111 98 90
192 184 172 171 178 175 167 165 167 151 132 64 72 86 63 111 118 134 147 130 152 140 136 116 81 84 90
185 174 176 177 169 174 169 175 169 160 147 139 152 108 94 59 38 114 104 118 124 121 119 108 109 65 85
167 171 172 170 165 173 169 172 167 158 157 150 164 149 147 140 85 34 118 125 129 116 107 85 121 124 106